Weather History for Mora, MN

Change the Weather History Date:

Tuesday, February 12, 2013

  Actual Average Record
Temperature  
Mean Temperature 16 °F -  
Max Temperature 32 °F 25 °F 49 °F (1976)
Min Temperature 0 °F 0 °F -33 °F (1988)
Degree Days  
Heating Degree Days 49    
Moisture  
Dew Point 13 °F    
Average Humidity 76    
Maximum Humidity 93    
Minimum Humidity 60    
Precipitation  
Precipitation 0.00 in - - ()
Sea Level Pressure  
Sea Level Pressure 29.87 in    
Wind  
Wind Speed 3 mph (SW)    
Max Wind Speed 10 mph    
Max Gust Speed 16 mph    
Visibility 10 miles    
Events Snow    
Averages and records for this station are not official NWS values.
T = Trace of Precipitation, MM = Missing Value Source: NWS Daily Summary

Daily Weather History Graph

Daily Weather History Graph

Search for Another Location

Airport:

Trip Planner

Search our weather history database for the weather conditions in past years. The results will help you decide how hot, cold, wet, or windy it might be!

Date:

Astronomy

Feb. 12, 2013 Rise Set
Actual Time 7:19 AM CST 5:35 PM CST
Civil Twilight 6:48 AM CST 6:06 PM CST
Nautical Twilight 6:13 AM CST 6:41 PM CST
Astronomical Twilight 5:39 AM CST 7:16 PM CST
Moon 8:05 AM CST (2/12) 8:50 PM CST (2/12)
Length of Visible Light 11h 17m
Length of Day
10h 15m
Waxing Crescent, 7% of the Moon is Illuminated
Feb 12
Waxing Crescent
Feb 17
First Quarter
Feb 25
Full
Mar 4
Last Quarter
Mar 11
New

Hourly Weather History & Observations

Time (CST) Temp. Windchill Dew Point Humidity Pressure Visibility Wind Dir Wind Speed Gust Speed Precip Events Conditions
12:13 AM 12.2 °F 4.3 °F 8.6 °F 85% 30.00 in 10.0 mi West 4.6 mph - N/A   Scattered Clouds
12:33 AM 12.2 °F - 8.6 °F 85% 30.00 in 10.0 mi Calm Calm - N/A   Clear
12:53 AM 10.4 °F - 5.0 °F 79% 30.00 in 10.0 mi Calm Calm - N/A   Clear
1:13 AM 10.4 °F - 5.0 °F 79% 29.99 in 10.0 mi Calm Calm - N/A   Clear
1:33 AM 8.6 °F - 3.2 °F 79% 29.99 in 10.0 mi Calm Calm - N/A   Clear
1:53 AM 3.2 °F - 1.4 °F 92% 29.99 in 10.0 mi Calm Calm - N/A   Clear
2:13 AM 3.2 °F - -0.4 °F 85% 29.98 in 10.0 mi Calm Calm - N/A   Clear
2:33 AM 1.4 °F - -4.0 °F 78% 29.98 in 10.0 mi Calm Calm - N/A   Clear
2:53 AM -0.4 °F - -4.0 °F 85% 29.98 in 10.0 mi Calm Calm - N/A   Clear
3:13 AM -0.4 °F - -4.0 °F 85% 29.97 in 10.0 mi Calm Calm - N/A   Clear
3:33 AM -0.4 °F - -5.8 °F 78% 29.97 in 10.0 mi Calm Calm - N/A   Scattered Clouds
3:53 AM -0.4 °F - -5.8 °F 78% 29.97 in 1.2 mi Calm Calm - N/A Snow Light Snow
4:13 AM -0.4 °F - -4.0 °F 85% 29.97 in 2.0 mi Calm Calm - N/A Snow Light Snow
4:33 AM 5.0 °F - 1.4 °F 85% 29.97 in 7.0 mi Calm Calm - N/A Snow Light Snow
4:53 AM 6.8 °F - 3.2 °F 85% 29.97 in 7.0 mi Calm Calm - N/A Snow Light Snow
5:13 AM 8.6 °F - 5.0 °F 85% 29.96 in 10.0 mi Calm Calm - N/A Snow Light Snow
5:33 AM 10.4 °F - 6.8 °F 85% 29.95 in 10.0 mi Calm Calm - N/A   Overcast
5:53 AM 12.2 °F - 8.6 °F 85% 29.95 in 10.0 mi Calm Calm - N/A   Overcast
6:13 AM 14.0 °F - 10.4 °F 86% 29.94 in 10.0 mi Calm Calm - N/A   Overcast
6:33 AM 14.0 °F - 10.4 °F 86% 29.94 in 10.0 mi Calm Calm - N/A   Overcast
6:53 AM 14.0 °F 8.2 °F 12.2 °F 93% 29.94 in 10.0 mi SSE 3.5 mph - N/A   Overcast
7:13 AM 14.0 °F 8.2 °F 12.2 °F 93% 29.93 in 10.0 mi South 3.5 mph - N/A   Mostly Cloudy
7:33 AM 14.0 °F 8.2 °F 12.2 °F 93% 29.93 in 10.0 mi SSE 3.5 mph - N/A   Scattered Clouds
7:53 AM 14.0 °F - 12.2 °F 93% 29.92 in 10.0 mi Calm Calm - N/A   Clear
8:13 AM 14.0 °F 6.5 °F 12.2 °F 93% 29.92 in 10.0 mi SSE 4.6 mph - N/A   Clear
8:33 AM 14.0 °F 8.2 °F 12.2 °F 93% 29.91 in 10.0 mi South 3.5 mph - N/A   Clear
8:53 AM 17.6 °F 9.3 °F 14.0 °F 86% 29.91 in 10.0 mi South 5.8 mph - N/A   Clear
9:13 AM 19.4 °F 9.5 °F 15.8 °F 86% 29.90 in 10.0 mi South 8.1 mph - N/A   Clear
9:33 AM 19.4 °F 9.5 °F 14.0 °F 80% 29.90 in 10.0 mi SSW 8.1 mph - N/A   Clear
9:53 AM 19.4 °F 8.6 °F 14.0 °F 80% 29.89 in 10.0 mi SSW 9.2 mph - N/A   Mostly Cloudy
10:13 AM 21.2 °F 12.6 °F 15.8 °F 80% 29.89 in 10.0 mi SSW 6.9 mph - N/A   Mostly Cloudy
10:33 AM 21.2 °F 10.9 °F 15.8 °F 80% 29.89 in 10.0 mi SSW 9.2 mph - N/A   Mostly Cloudy
10:53 AM 24.8 °F 15.3 °F 17.6 °F 74% 29.88 in 10.0 mi SSW 9.2 mph - N/A   Scattered Clouds
11:13 AM 26.6 °F 16.8 °F 17.6 °F 69% 29.88 in 4.0 mi SSW 10.4 mph 16.1 mph N/A   Haze
11:33 AM 26.6 °F 18.2 °F 17.6 °F 69% 29.87 in 10.0 mi SW 8.1 mph - N/A   Scattered Clouds
11:53 AM 26.6 °F 18.2 °F 17.6 °F 69% 29.87 in 10.0 mi SW 8.1 mph - N/A   Mostly Cloudy
12:13 PM 28.4 °F 21.2 °F 17.6 °F 64% 29.85 in 10.0 mi SW 6.9 mph - N/A   Mostly Cloudy
12:33 PM 28.4 °F 19.7 °F 17.6 °F 64% 29.84 in 10.0 mi SW 9.2 mph - N/A   Overcast
12:53 PM 30.2 °F 23.4 °F 17.6 °F 60% 29.83 in 10.0 mi SW 6.9 mph - N/A   Mostly Cloudy
1:13 PM 30.2 °F 22.6 °F 17.6 °F 60% 29.83 in 10.0 mi SSW 8.1 mph - N/A   Overcast
1:33 PM 32.0 °F 25.6 °F 19.4 °F 60% 29.82 in 10.0 mi SW 6.9 mph - N/A   Scattered Clouds
1:53 PM 30.2 °F 21.9 °F 19.4 °F 64% 29.81 in 10.0 mi SW 9.2 mph - N/A   Clear
2:13 PM 32.0 °F 24.8 °F 19.4 °F 60% 29.82 in 10.0 mi WSW 8.1 mph - N/A   Clear
2:33 PM 32.0 °F 25.6 °F 19.4 °F 60% 29.82 in 10.0 mi SW 6.9 mph - N/A   Clear
2:53 PM 32.0 °F 24.2 °F 19.4 °F 60% 29.81 in 10.0 mi SW 9.2 mph - N/A   Clear
3:13 PM 32.0 °F 25.6 °F 19.4 °F 60% 29.81 in 10.0 mi WSW 6.9 mph - N/A   Clear
3:33 PM 32.0 °F 25.6 °F 19.4 °F 60% 29.81 in 10.0 mi WSW 6.9 mph - N/A   Clear
4:13 PM 32.0 °F 25.6 °F 19.4 °F 60% 29.82 in 10.0 mi SW 6.9 mph - N/A   Clear
4:33 PM 30.2 °F 22.6 °F 17.6 °F 60% 29.81 in 10.0 mi SW 8.1 mph - N/A   Clear
4:53 PM 30.2 °F 23.4 °F 17.6 °F 60% 29.81 in 10.0 mi WSW 6.9 mph - N/A   Clear
5:13 PM 28.4 °F 22.2 °F 17.6 °F 64% 29.81 in 10.0 mi WSW 5.8 mph - N/A   Clear
5:33 PM 26.6 °F 19.1 °F 17.6 °F 69% 29.81 in 10.0 mi SW 6.9 mph - N/A   Clear
5:53 PM 26.6 °F 20.0 °F 17.6 °F 69% 29.81 in 10.0 mi SW 5.8 mph - N/A   Clear
6:13 PM 26.6 °F 21.2 °F 19.4 °F 74% 29.80 in 10.0 mi SW 4.6 mph - N/A   Clear
6:33 PM 24.8 °F 20.5 °F 17.6 °F 74% 29.80 in 10.0 mi WSW 3.5 mph - N/A   Clear
6:53 PM 24.8 °F 19.1 °F 17.6 °F 74% 29.80 in 10.0 mi SW 4.6 mph - N/A   Clear
7:13 PM 26.6 °F 21.2 °F 17.6 °F 69% 29.80 in 10.0 mi WSW 4.6 mph - N/A   Scattered Clouds
7:33 PM 26.6 °F 21.2 °F 19.4 °F 74% 29.80 in 10.0 mi WSW 4.6 mph - N/A   Overcast
7:53 PM 26.6 °F 20.0 °F 19.4 °F 74% 29.80 in 10.0 mi WSW 5.8 mph - N/A   Overcast
8:13 PM 26.6 °F 21.2 °F 17.6 °F 69% 29.80 in 10.0 mi WSW 4.6 mph - N/A   Overcast
8:33 PM 24.8 °F 19.1 °F 17.6 °F 74% 29.80 in 10.0 mi WSW 4.6 mph - N/A   Scattered Clouds
8:53 PM 24.8 °F 19.1 °F 17.6 °F 74% 29.79 in 10.0 mi SW 4.6 mph - N/A   Scattered Clouds
9:13 PM 23.0 °F 17.0 °F 17.6 °F 80% 29.79 in 10.0 mi SW 4.6 mph - N/A   Mostly Cloudy
9:33 PM 23.0 °F 17.0 °F 17.6 °F 80% 29.78 in 10.0 mi SW 4.6 mph - N/A   Overcast
9:53 PM 23.0 °F 14.7 °F 17.6 °F 80% 29.78 in 10.0 mi WSW 6.9 mph - N/A   Overcast
10:13 PM 23.0 °F 15.8 °F 17.6 °F 80% 29.78 in 10.0 mi WSW 5.8 mph - N/A   Overcast
10:33 PM 23.0 °F 15.8 °F 17.6 °F 80% 29.78 in 10.0 mi WSW 5.8 mph - N/A   Overcast
10:53 PM 23.0 °F 17.0 °F 17.6 °F 80% 29.77 in 10.0 mi WSW 4.6 mph - N/A   Overcast
11:13 PM 23.0 °F 18.4 °F 17.6 °F 80% 29.76 in 10.0 mi SW 3.5 mph - N/A   Overcast
11:33 PM 24.8 °F 17.9 °F 17.6 °F 74% 29.77 in 10.0 mi West 5.8 mph - N/A   Overcast
11:53 PM 24.8 °F 19.1 °F 17.6 °F 74% 29.77 in 10.0 mi West 4.6 mph - N/A   Overcast